TimeCST,TemperatureF,Dew PointF,Humidity,Sea Level PressureIn,VisibilityMPH,Wind Direction,Wind SpeedMPH,Gust SpeedMPH,PrecipitationIn,Events,Conditions,WindDirDegrees,DateUTC
4:31 AM,17.1,12.6,82,30.06,7.0,SSW,3.5,-,N/A,,Overcast,210,2013-12-25 10:31:00
4:33 AM,17.1,12.6,82,30.06,7.0,SSW,3.5,-,N/A,,Overcast,200,2013-12-25 10:33:00
4:53 AM,17.6,13.1,83,30.05,7.0,South,5.8,-,N/A,,Overcast,190,2013-12-25 10:53:00
5:13 AM,18.1,13.6,83,30.05,7.0,SSW,3.5,-,N/A,,Overcast,210,2013-12-25 11:13:00
5:33 AM,18.5,14.0,83,30.05,7.0,SSW,4.6,-,N/A,,Overcast,200,2013-12-25 11:33:00
5:53 AM,19.0,14.5,83,30.04,3.0,Calm,Calm,-,N/A,Snow,Light Snow,0,2013-12-25 11:53:00
6:13 AM,19.0,14.9,84,30.04,2.5,South,3.5,-,N/A,Snow,Light Snow,180,2013-12-25 12:13:00
6:33 AM,19.0,14.9,84,30.03,4.0,South,4.6,-,N/A,Snow,Light Snow,180,2013-12-25 12:33:00
6:53 AM,19.4,15.4,85,30.03,7.0,South,4.6,-,N/A,,Overcast,180,2013-12-25 12:53:00
7:13 AM,19.9,15.8,84,30.03,2.5,South,6.9,-,N/A,Snow,Light Snow,190,2013-12-25 13:13:00
7:33 AM,20.5,16.7,85,30.03,2.5,South,5.8,-,N/A,Snow,Light Snow,190,2013-12-25 13:33:00
7:53 AM,21.0,17.2,85,30.03,5.0,South,6.9,-,N/A,Snow,Light Snow,190,2013-12-25 13:53:00
8:13 AM,21.7,17.6,84,30.03,5.0,SSW,6.9,-,N/A,,Overcast,210,2013-12-25 14:13:00
8:33 AM,22.1,18.3,85,30.03,7.0,SSW,4.6,-,N/A,,Overcast,210,2013-12-25 14:33:00
8:53 AM,22.6,18.5,84,30.04,7.0,SSW,3.5,-,N/A,,Overcast,210,2013-12-25 14:53:00
9:13 AM,23.4,19.4,85,30.04,7.0,SW,4.6,-,N/A,,Overcast,220,2013-12-25 15:13:00
9:34 AM,24.6,20.3,84,30.04,7.0,WSW,4.6,-,N/A,,Overcast,250,2013-12-25 15:34:00
9:53 AM,25.5,21.4,84,30.04,7.0,WSW,5.8,-,N/A,,Overcast,240,2013-12-25 15:53:00
10:13 AM,26.8,22.5,84,30.05,7.0,West,8.1,-,N/A,,Overcast,260,2013-12-25 16:13:00
10:34 AM,28.0,23.5,83,30.06,7.0,West,10.4,-,N/A,,Overcast,270,2013-12-25 16:34:00
10:53 AM,28.4,23.7,83,30.06,7.0,West,11.5,-,N/A,,Overcast,280,2013-12-25 16:53:00
11:13 AM,29.1,23.2,78,30.06,10.0,West,12.7,17.3,N/A,,Overcast,280,2013-12-25 17:13:00
11:33 AM,29.3,22.6,76,30.05,10.0,West,11.5,-,N/A,,Overcast,280,2013-12-25 17:33:00
11:53 AM,29.3,21.2,72,30.05,10.0,WNW,11.5,-,N/A,,Mostly Cloudy,290,2013-12-25 17:53:00
12:13 PM,29.7,18.9,64,30.05,0.8,West,23.0,28.8,N/A,Snow,Light Snow,280,2013-12-25 18:13:00
12:33 PM,26.8,15.8,63,30.06,1.8,West,19.6,28.8,N/A,,Haze,280,2013-12-25 18:33:00
12:53 PM,24.8,12.2,59,30.06,3.0,West,21.9,28.8,N/A,,Haze,280,2013-12-25 18:53:00
1:13 PM,23.9,12.9,63,30.06,7.0,West,17.3,-,N/A,,Clear,280,2013-12-25 19:13:00
1:33 PM,22.8,12.6,65,30.07,10.0,West,20.7,25.3,N/A,,Clear,280,2013-12-25 19:33:00
1:53 PM,22.6,12.7,66,30.07,10.0,West,18.4,25.3,N/A,,Clear,280,2013-12-25 19:53:00
2:13 PM,22.1,12.2,66,30.07,10.0,WNW,17.3,24.2,N/A,,Clear,290,2013-12-25 20:13:00
2:33 PM,22.1,12.2,66,30.09,7.0,WNW,18.4,24.2,N/A,,Clear,290,2013-12-25 20:33:00
2:53 PM,21.2,12.2,68,30.09,10.0,West,12.7,17.3,N/A,,Clear,280,2013-12-25 20:53:00
3:13 PM,20.5,11.5,68,30.09,10.0,West,17.3,-,N/A,,Clear,280,2013-12-25 21:13:00
3:33 PM,19.9,11.3,69,30.10,10.0,West,18.4,24.2,N/A,,Clear,280,2013-12-25 21:33:00
3:53 PM,18.9,10.8,71,30.11,10.0,West,15.0,-,N/A,,Clear,280,2013-12-25 21:53:00
4:14 PM,18.3,10.4,71,30.12,10.0,West,15.0,-,N/A,,Clear,280,2013-12-25 22:14:00
4:33 PM,18.0,9.9,71,30.12,10.0,West,13.8,-,N/A,,Clear,280,2013-12-25 22:33:00
4:53 PM,17.2,9.3,71,30.12,10.0,West,13.8,19.6,N/A,,Clear,280,2013-12-25 22:53:00
5:13 PM,16.7,9.0,72,30.13,10.0,West,13.8,19.6,N/A,,Clear,280,2013-12-25 23:13:00
5:33 PM,16.3,8.2,70,30.12,10.0,West,15.0,18.4,N/A,,Clear,280,2013-12-25 23:33:00
5:53 PM,16.0,7.9,70,30.13,10.0,WNW,16.1,-,N/A,,Clear,290,2013-12-25 23:53:00
6:13 PM,16.0,7.9,70,30.13,10.0,West,15.0,-,N/A,,Clear,280,2013-12-26 00:13:00
6:33 PM,14.9,7.5,73,30.13,10.0,West,11.5,-,N/A,,Clear,280,2013-12-26 00:33:00
6:53 PM,13.5,6.4,74,30.14,10.0,West,6.9,-,N/A,,Clear,280,2013-12-26 00:53:00
7:13 PM,12.2,5.9,76,30.14,10.0,West,5.8,-,N/A,,Clear,270,2013-12-26 01:13:00
7:33 PM,11.5,5.9,78,30.14,10.0,West,3.5,-,N/A,,Mostly Cloudy,260,2013-12-26 01:33:00
7:53 PM,10.8,5.2,78,30.14,10.0,WSW,3.5,-,N/A,,Overcast,250,2013-12-26 01:53:00
8:12 PM,12.0,6.3,78,30.13,10.0,WSW,4.6,-,N/A,,Overcast,250,2013-12-26 02:12:00
8:33 PM,12.9,7.0,77,30.13,10.0,WSW,4.6,-,N/A,,Overcast,240,2013-12-26 02:33:00
8:53 PM,14.0,8.2,78,30.13,10.0,WSW,3.5,-,N/A,,Overcast,240,2013-12-26 02:53:00
9:13 PM,14.4,8.4,77,30.12,10.0,WSW,3.5,-,N/A,,Overcast,240,2013-12-26 03:13:00
9:33 PM,14.5,8.6,77,30.12,10.0,SW,4.6,-,N/A,,Overcast,220,2013-12-26 03:33:00
9:53 PM,14.9,9.1,78,30.11,10.0,SW,3.5,-,N/A,,Overcast,230,2013-12-26 03:53:00
10:13 PM,15.6,9.9,78,30.11,10.0,SSW,4.6,-,N/A,,Overcast,210,2013-12-26 04:13:00
10:33 PM,15.8,10.2,79,30.11,10.0,SSW,5.8,-,N/A,,Overcast,210,2013-12-26 04:33:00
10:53 PM,16.3,10.6,78,30.11,10.0,SW,3.5,-,N/A,,Overcast,220,2013-12-26 04:53:00
11:13 PM,16.7,11.1,79,30.11,7.0,Calm,Calm,-,N/A,Snow,Light Snow,0,2013-12-26 05:13:00
11:33 PM,16.7,11.3,79,30.09,10.0,Calm,Calm,-,N/A,Snow,Light Snow,0,2013-12-26 05:33:00
11:53 PM,17.2,11.8,79,30.09,10.0,SSW,4.6,-,N/A,,Overcast,200,2013-12-26 05:53:00